EDT,Max TemperatureF,Mean TemperatureF,Min TemperatureF,Max Dew PointF,MeanDew PointF,Min DewpointF,Max Humidity, Mean Humidity, Min Humidity, Max Sea Level PressureIn, Mean Sea Level PressureIn, Min Sea Level PressureIn, Max VisibilityMiles, Mean VisibilityMiles, Min VisibilityMiles, Max Wind SpeedMPH, Mean Wind SpeedMPH, Max Gust SpeedMPH,PrecipitationIn, CloudCover, Events, WindDirDegrees
2012-10-1,68,62,57,64,61,57,100,94,83,29.98,29.93,29.90,10,9,5,8,1,,0.00,4,Rain,62
2012-10-2,84,73,62,79,73,63,100,92,79,29.98,29.91,29.87,10,8,0,14,4,17,0.00,4,Fog,157
2012-10-3,84,78,73,79,75,73,100,91,70,30.15,30.08,29.98,10,9,0,12,5,,0.00,2,Fog,197
2012-10-4,82,74,66,75,69,63,100,83,54,30.20,30.15,30.12,10,8,2,14,4,20,0.00,1,,235
2012-10-5,78,70,62,66,62,55,100,81,44,30.16,30.10,30.03,10,8,1,10,1,,0.00,0,,70
2012-10-6,82,70,59,68,63,57,100,77,51,30.02,29.94,29.87,10,9,2,13,4,18,0.00,1,,232
2012-10-7,66,60,53,57,55,50,100,89,59,30.15,30.05,29.98,10,8,2,13,6,17,0.34,7,Rain-Thunderstorm,8
2012-10-8,57,55,53,57,52,46,100,92,77,30.26,30.17,30.11,10,10,3,14,6,21,1.87,7,Rain-Thunderstorm,7
2012-10-9,59,57,55,59,57,55,100,100,94,30.13,30.09,30.06,10,5,1,8,5,,0.10,8,Rain,339
2012-10-10,69,62,55,59,56,54,100,88,56,30.06,30.01,29.93,10,6,0,13,3,17,0.00,5,Fog,257
2012-10-11,64,55,46,54,47,41,100,75,42,30.32,30.23,30.07,10,10,10,14,3,21,0.00,0,,340
2012-10-12,69,56,44,54,48,43,100,78,40,30.39,30.23,30.18,10,10,10,12,3,17,0.00,0,,341
2012-10-13,64,54,44,52,45,37,100,69,49,30.49,30.42,30.38,10,10,7,10,4,17,0.00,0,,31
2012-10-14,78,61,44,63,54,45,100,83,47,30.36,30.21,30.05,10,10,10,12,2,17,0.00,0,,197
2012-10-15,75,68,60,66,63,59,100,89,65,30.04,29.86,29.70,10,10,5,17,5,25,0.57,3,Rain-Thunderstorm,216
2012-10-16,66,56,46,61,50,45,100,78,49,29.95,29.89,29.79,10,10,7,13,5,21,0.00,0,,331
2012-10-17,69,56,44,57,51,45,100,85,53,30.03,29.99,29.93,10,10,10,8,1,,0.00,0,,185
2012-10-18,77,62,46,64,57,46,100,85,57,29.99,29.92,29.82,10,10,5,10,2,16,0.00,2,Rain,130
2012-10-19,78,70,62,70,65,54,100,89,61,29.80,29.75,29.69,10,7,0,13,3,20,0.00,3,Fog-Rain,181
2012-10-20,73,60,48,54,49,43,100,71,33,29.92,29.81,29.76,10,10,10,10,3,17,0.00,0,,240
2012-10-21,66,56,46,50,46,43,100,71,43,30.15,30.08,29.94,10,10,10,13,3,17,0.00,0,,335
2012-10-22,71,56,41,54,46,39,100,72,38,30.23,30.18,30.14,10,10,10,8,1,,0.00,0,,335
2012-10-23,78,61,44,57,51,43,100,75,38,30.20,30.14,30.10,10,10,10,7,1,,0.00,0,,207
2012-10-24,80,66,51,64,57,50,100,81,45,30.19,30.13,30.08,10,10,7,9,3,,0.00,0,,219
2012-10-25,80,66,51,66,60,52,100,86,54,30.19,30.15,30.13,10,9,3,10,2,,0.00,1,,45
2012-10-26,71,68,64,66,66,64,100,95,83,30.14,30.06,29.96,10,8,3,15,6,22,0.00,6,Rain,31
2012-10-27,69,66,62,64,63,61,100,91,78,29.95,29.80,29.67,10,9,5,21,11,29,0.08,5,Rain,29
2012-10-28,62,60,57,61,60,57,100,99,94,29.68,29.54,29.40,10,10,7,18,14,29,2.47,8,Rain,14
2012-10-29,57,50,42,57,51,43,100,100,100,29.41,29.25,29.11,10,9,2,29,14,39,1.66,8,Rain,289
2012-10-30,46,44,42,45,42,39,100,92,81,29.56,29.38,29.14,10,10,5,22,14,32,0.12,7,Rain,209
2012-10-31,53,46,39,45,40,37,93,79,58,29.73,29.64,29.55,10,10,10,13,7,18,0.00,2,,225